TimePST,TemperatureF,Dew PointF,Humidity,Sea Level PressureIn,VisibilityMPH,Wind Direction,Wind SpeedMPH,Gust SpeedMPH,PrecipitationIn,Events,Conditions,WindDirDegrees,DateUTC
12:52 AM,48.9,14.0,25,30.16,-9999.0,NNE,19.6,34.5,N/A,,Unknown,30,2012-11-12 08:52:00
1:52 AM,48.0,12.0,24,30.16,-9999.0,NE,12.7,25.3,N/A,,Unknown,40,2012-11-12 09:52:00
2:52 AM,48.9,8.1,19,30.15,-9999.0,NNE,5.8,16.1,N/A,,Unknown,30,2012-11-12 10:52:00
3:52 AM,48.0,7.0,19,30.14,-9999.0,NE,15.0,20.7,N/A,,Unknown,40,2012-11-12 11:52:00
4:52 AM,48.9,5.0,17,30.15,-9999.0,North,10.4,24.2,N/A,,Unknown,10,2012-11-12 12:52:00
5:52 AM,48.0,5.0,17,30.17,-9999.0,NE,12.7,18.4,N/A,,Unknown,50,2012-11-12 13:52:00
6:52 AM,48.0,5.0,17,30.19,-9999.0,NE,12.7,-,N/A,,Unknown,50,2012-11-12 14:52:00
7:52 AM,53.1,5.0,14,30.17,-9999.0,NE,19.6,27.6,N/A,,Unknown,50,2012-11-12 15:52:00
8:52 AM,55.0,6.1,14,30.16,-9999.0,NE,19.6,29.9,N/A,,Unknown,50,2012-11-12 16:52:00
9:52 AM,57.0,6.1,13,30.14,-9999.0,NE,18.4,32.2,N/A,,Unknown,50,2012-11-12 17:52:00
10:52 AM,57.9,6.1,13,30.13,-9999.0,ENE,21.9,35.7,N/A,,Unknown,60,2012-11-12 18:52:00
11:52 AM,60.1,6.1,12,30.09,-9999.0,ENE,20.7,33.4,N/A,,Unknown,70,2012-11-12 19:52:00
12:52 PM,60.1,3.9,11,30.08,-9999.0,ENE,23.0,33.4,N/A,,Unknown,70,2012-11-12 20:52:00
1:52 PM,61.0,1.9,9,30.06,-9999.0,East,27.6,33.4,N/A,,Unknown,80,2012-11-12 21:52:00
2:52 PM,62.1,1.0,9,30.05,-9999.0,East,25.3,31.1,N/A,,Unknown,80,2012-11-12 22:52:00
3:52 PM,59.0,1.0,10,30.05,-9999.0,East,19.6,27.6,N/A,,Unknown,80,2012-11-12 23:52:00
4:52 PM,53.1,3.9,14,30.07,-9999.0,ENE,11.5,-,N/A,,Unknown,70,2012-11-13 00:52:00
5:52 PM,52.0,1.9,13,30.09,-9999.0,East,15.0,-,N/A,,Unknown,80,2012-11-13 01:52:00
6:52 PM,52.0,-0.9,11,30.09,-9999.0,Variable,4.6,-,N/A,,Unknown,0,2012-11-13 02:52:00
7:52 PM,55.0,-2.9,9,30.09,-9999.0,NE,6.9,-,N/A,,Unknown,50,2012-11-13 03:52:00
8:52 PM,57.0,-14.1,5,30.09,-9999.0,Calm,Calm,-,N/A,,Unknown,0,2012-11-13 04:52:00
9:52 PM,53.1,-2.9,10,30.10,-9999.0,ENE,6.9,-,N/A,,Unknown,60,2012-11-13 05:52:00
10:52 PM,52.0,-2.0,11,30.10,-9999.0,NE,13.8,-,N/A,,Unknown,40,2012-11-13 06:52:00
11:52 PM,50.0,-0.9,12,30.09,-9999.0,NE,10.4,-,N/A,,Unknown,50,2012-11-13 07:52:00